SCP
0 0 0 0 0 0 0 0 0 0 0 0 0 0 0 0 0 0 0 0 0 0 0 0 0 0 0 0 0 0 0 0 0 0 0 0 0 0 0 0 0 0 0
0 0 0 0 0 0 0 0 0 0 0 0 0 0 0 0 0 0 0 0 0 0 0 0 0 0 0 0 0 0 0 0 0 0 0 0 0 0 0 0 0 0 0
0 0 0 0 0 0 0 0 0 0 0 0 0 0 0 0 0 0 0 0 0 0 0 0 0 0 0 0 0 0 0 0 0 0 0 0 0 0 0 0 0 0 0
0 0 0 0 0 0 0 0 0 0 0 0 0 0 0 0 0 0 0 0 0 0 0 0 0 0 0 0 0 0 0 0 0 0 0 0 0 0 0 0 0 0 0
0 0 0 0 0 0 0 0 0 0 0 0 0 0 0 0 0 0 0 0 0 0 0 0 0 0 0 0 0 0 0 0 0 0 0 0 0 0 0 0 0 0 0
0 0 0 0 0 0 0 0 0 0 0 0 0 0 0 0 0 0 0 0 0 0 0 0 0 0 0 0 0 0 0 0 0 0 0 0 0 0 0 0 0 0 0
0 0 0 0 0 0 0 0 0 0 0 0 0 0 0 0 0 0 0 0 0 0 0 0 0 0 0 0 0 0 0 0 0 0 0 0 0 0 0 0 0 0 0
0 0 0 0 0 0 0 0 0 0 0 0 0 0 0 0 0 0 0 0 0 0 0 0 0 0 0 0 0 0 0 0 0 0 0 0 0 0 0 0 0 0 0
0 0 0 0 0 0 0 0 0 0 0 0 0 0 0 0 0 0 0 0 0 0 0 0 0 0 0 0 0 0 0 0 0 0 0 1 1 1 1 1 1 0 0
0 0 0 0 0 0 0 0 0 0 0 0 0 0 0 0 0 0 0 0 0 0 0 0 0 0 0 0 0 0 0 0 0 0 0 0 1 1 1 1 1 1 1
0 0 0 0 0 0 0 0 0 0 0 0 0 0 0 0 0 0 0 0 0 0 0 0 0 0 0 0 0 0 0 0 0 0 0 0 0 1 1 1 1 1 1
0 0 0 0 0 0 0 0 0 0 0 0 0 0 0 0 0 0 0 0 0 0 0 0 0 0 0 0 0 0 0 0 0 0 0 0 0 0 1 1 1 1 1
0 0 0 0 0 0 0 0 0 0 0 0 0 0 0 0 0 0 0 0 0 0 0 0 0 0 0 0 0 0 0 0 0 0 0 0 0 0 0 0 0 0 1
0 0 0 0 0 0 0 0 0 0 0 0 0 0 0 0 0 0 0 0 0 0 0 0 0 0 0 0 0 0 0 0 0 0 0 0 0 0 0 0 0 0 0
0 0 0 0 0 0 0 0 0 0 0 0 0 0 0 0 0 0 0 0 0 0 0 0 0 0 0 0 0 0 0 0 0 0 0 0 0 0 0 0 0 0 0
0 0 0 0 0 0 0 0 0 0 0 0 0 0 0 0 0 0 0 0 0 0 0 0 0 0 0 0 0 0 0 0 0 0 0 0 0 0 0 0 0 0 0
0 0 0 0 0 0 0 0 0 0 0 0 0 0 0 0 0 0 0 0 0 0 0 0 0 0 0 0 0 0 0 0 0 0 0 0 0 0 0 0 0 0 0
0 0 0 0 0 0 0 0 0 0 0 0 0 0 0 0 0 0 0 0 0 0 0 0 0 0 0 0 0 0 0 0 0 0 0 0 0 0 0 0 0 0 0
0 0 0 0 0 0 0 0 0 0 0 0 0 0 0 0 0 0 0 0 0 0 0 0 0 0 0 0 0 0 0 0 0 0 0 0 0 0 0 0 0 0 0
0 0 0 0 0 0 0 0 0 0 0 0 0 0 0 0 0 0 0 0 0 0 0 0 0 0 0 0 0 0 0 0 0 0 0 0 0 0 0 0 0 0 0
0 0 0 0 0 0 0 0 0 0 0 0 0 0 0 0 0 0 0 0 0 0 0 0 0 0 0 0 0 0 0 0 0 0 0 0 0 0 0 0 0 0 0
0 0 0 0 0 0 0 0 0 0 0 0 0 0 0 0 0 0 0 0 0 0 0 0 0 0 0 0 0 0 0 0 0 0 0 0 0 0 0 0 0 0 0
0 0 0 0 0 0 0 0 0 0 0 0 0 0 0 0 0 0 0 0 0 0 0 0 0 0 0 0 0 0 0 0 0 0 0 0 0 0 0 0 0 0 0
0 0 0 0 0 0 0 0 0 0 0 0 0 0 0 0 0 0 0 0 0 0 0 0 0 0 0 0 0 0 0 0 0 0 0 0 0 0 0 0 0 0 0
1 0 0 0 0 0 0 0 0 0 0 0 0 0 0 0 0 0 0 0 0 0 0 0 0 0 0 0 0 0 0 0 0 0 0 0 0 0 0 0 0 0 0
1 1 0 0 0 0 0 0 0 0 0 0 0 0 0 0 0 0 0 0 0 0 0 0 0 0 0 0 0 0 0 0 0 0 0 0 0 0 0 0 0 0 0
Wind_Speed
2 2 1 1 1 1 2 2 1 1 2 2 3 3 3 3 3 3 2 6 6 7 9 11 12 13 13 13 13 12 12 12 11 10 10 10 10 10 10 9 9 9 8
2 2 2 1 1 1 1 1 1 2 1 1 2 2 3 3 2 4 4 4 7 8 9 10 11 12 13 13 14 13 13 13 12 11 11 11 10 10 11 10 10 9 9
2 1 1 2 1 1 2 2 2 2 3 3 2 2 3 3 3 3 4 4 4 8 9 9 10 11 13 13 14 14 14 13 13 13 12 12 11 11 11 10 10 10 9
2 2 1 1 1 1 2 2 2 2 2 2 2 2 2 2 4 4 5 4 4 4 6 8 8 10 12 13 14 14 14 14 14 14 14 13 13 12 12 11 11 11 10
3 2 1 2 2 1 1 2 1 2 1 2 3 3 3 3 3 4 4 4 3 4 4 5 8 8 11 13 14 14 14 14 14 15 15 15 15 14 13 13 12 12 12
3 2 3 2 2 1 1 0 0 1 2 2 4 2 3 3 3 2 3 3 2 3 4 3 5 7 10 10 12 14 15 15 14 15 16 16 16 15 15 14 14 14 13
4 2 1 3 2 1 0 1 2 2 2 2 4 4 3 4 2 2 2 2 1 2 2 3 4 3 4 10 10 11 13 15 15 15 15 15 16 16 16 16 16 15 15
4 4 1 2 2 1 1 1 2 3 2 1 4 5 4 4 4 2 2 2 1 2 2 2 2 2 4 4 5 8 10 12 15 16 16 16 16 15 16 17 17 17 17
4 2 3 2 1 3 1 1 2 3 3 2 3 4 5 3 2 3 2 1 2 2 3 2 3 2 4 4 4 5 6 7 11 14 14 15 15 15 16 17 17 18 18
4 3 3 2 2 1 0 3 0 2 4 4 1 2 4 5 5 3 3 2 2 3 3 4 3 2 3 3 2 1 2 4 6 9 12 13 14 16 16 17 18 18 19
4 4 3 2 2 1 0 2 1 3 3 4 4 3 2 3 6 6 5 3 3 3 2 4 3 3 3 3 3 2 1 2 3 5 7 10 12 15 17 18 19 20 19
4 5 4 2 2 1 1 1 2 2 3 3 4 4 4 4 4 5 6 5 5 4 3 3 4 4 3 4 2 4 2 2 3 4 6 7 9 11 14 17 19 19 20
5 5 4 3 3 2 2 2 2 2 3 3 4 4 4 4 4 5 6 6 6 5 4 5 3 4 4 3 1 2 3 2 3 4 5 7 8 9 10 13 16 17 18
3 5 5 4 4 3 3 2 3 3 2 4 4 4 4 4 4 4 5 6 7 6 5 5 3 4 3 4 2 4 6 4 3 5 6 7 8 9 9 10 12 14 15
4 6 5 5 5 4 3 4 3 3 3 5 4 5 5 4 4 4 5 6 7 8 7 3 3 3 4 4 2 6 7 2 4 7 8 8 9 9 9 10 11 12 13
5 6 6 6 5 5 5 5 5 4 4 5 4 4 5 5 4 5 5 5 6 8 8 6 5 6 5 7 5 7 8 5 10 11 10 9 9 10 10 11 11 11 12
7 7 6 6 6 6 5 5 6 4 6 6 6 6 6 6 6 5 5 6 6 7 8 8 7 6 6 9 8 8 9 9 9 11 10 9 10 10 11 11 12 12 12
8 8 7 7 7 7 6 6 7 6 7 7 7 7 7 6 7 7 6 7 7 7 9 10 9 8 8 8 9 9 10 9 9 7 10 10 11 12 12 12 12 12 13
8 8 8 8 8 7 7 7 7 7 7 8 8 8 8 8 8 7 7 8 7 7 7 9 10 7 8 8 8 9 11 9 11 9 11 14 14 14 13 13 13 13 13
9 9 9 9 8 8 8 8 8 8 8 8 8 9 9 9 10 9 8 9 9 9 9 9 10 8 8 8 7 9 9 8 8 9 8 8 10 13 15 14 14 14 14
9 8 9 9 9 8 8 8 8 9 9 9 9 10 10 9 8 9 9 8 8 9 9 9 9 9 8 7 7 8 8 8 8 8 9 9 9 10 11 15 16 15 14
8 8 9 9 9 8 5 6 8 9 9 10 10 10 10 11 12 14 14 13 12 12 11 10 10 10 10 10 8 9 9 10 10 7 7 9 9 9 9 10 8 12 13
9 9 10 10 10 9 8 9 10 10 11 11 11 10 10 9 9 12 14 17 17 18 17 14 14 14 12 10 10 11 10 11 11 9 9 11 10 10 10 9 7 9 11
9 10 10 11 10 9 10 11 10 12 13 13 13 13 12 12 11 11 12 13 13 14 15 15 14 15 14 11 10 11 12 12 13 11 11 12 11 11 10 9 9 12 12
9 10 10 10 11 10 10 11 11 10 11 13 13 13 13 14 11 10 12 14 14 13 13 16 16 15 13 12 10 11 12 12 12 11 9 10 11 10 10 10 9 13 13
9 9 9 9 10 11 9 12 12 10 11 11 11 12 14 15 12 10 12 13 15 14 13 11 12 15 16 16 16 15 14 13 12 12 9 9 10 10 10 10 9 7 10
Wind_Direction
185 160 139 178 229 186 191 204 207 191 218 229 247 247 261 275 283 274 164 163 204 218 216 215 214 212 210 209 210 209 207 205 202 198 199 198 195 193 193 193 190 187 184
157 170 178 180 202 219 234 214 196 215 226 240 244 246 264 268 258 271 271 192 196 214 221 220 219 217 216 215 216 215 213 212 207 203 202 202 201 199 200 201 198 194 192
146 183 160 180 155 181 172 201 206 211 219 224 232 246 254 270 275 267 275 281 234 204 210 219 220 217 219 221 222 220 217 215 212 209 207 205 204 204 204 205 203 199 196
163 199 170 134 138 198 196 177 224 220 232 253 249 259 261 259 264 265 261 253 266 259 203 201 221 223 222 224 227 225 223 219 217 215 212 210 208 208 207 208 207 203 200
165 196 147 99 198 195 211 241 144 274 257 278 257 231 252 257 263 260 270 269 257 257 252 180 202 223 227 228 228 228 227 225 223 221 218 216 214 211 210 211 210 207 205
167 186 162 144 221 188 181 273 359 282 291 285 285 283 261 263 253 249 253 244 245 258 261 252 216 212 217 228 230 229 227 226 225 226 225 221 219 215 213 213 213 212 211
154 196 182 147 226 177 269 247 268 233 262 304 280 261 232 226 237 241 252 279 272 279 272 255 250 253 215 209 222 230 230 228 227 227 228 226 225 220 216 215 215 215 214
174 182 190 200 183 183 197 255 277 297 303 294 296 294 270 210 189 209 229 230 292 276 260 253 261 245 266 247 195 213 229 232 231 227 225 224 224 223 221 220 217 216 216
174 181 179 243 200 245 180 252 265 274 296 289 304 307 304 312 325 186 199 242 291 306 290 293 257 258 258 257 246 197 219 239 239 236 230 227 225 223 224 224 223 220 219
175 174 186 196 242 273 122 245 231 287 285 284 241 270 302 330 303 289 226 203 227 266 298 296 291 263 258 256 225 234 219 249 251 248 242 238 232 226 226 228 229 226 223
177 180 184 188 207 245 312 333 328 292 287 299 303 287 274 258 264 282 290 293 271 265 282 282 285 280 273 262 255 70 42 271 264 260 259 251 242 233 229 230 233 232 229
177 173 180 186 210 216 180 227 261 243 301 318 304 299 292 289 288 289 288 281 285 286 295 297 279 276 271 264 258 57 351 311 286 270 263 263 259 248 239 234 234 236 235
180 169 181 187 196 190 207 229 235 283 265 269 271 284 292 292 297 295 293 296 297 288 272 260 261 281 274 277 258 49 240 244 286 281 270 267 264 258 249 241 237 237 238
179 157 180 189 197 203 210 213 245 229 240 254 263 282 281 276 285 284 290 297 292 287 269 272 292 273 288 286 1 285 260 197 252 276 272 269 266 260 255 248 243 238 235
174 176 188 192 194 199 214 226 242 243 235 247 247 232 255 270 265 275 278 282 290 295 296 289 275 284 279 287 298 283 283 228 251 267 266 265 264 262 258 253 248 244 240
184 187 194 196 198 200 208 230 233 217 238 242 258 274 269 268 268 265 269 270 272 282 291 299 290 289 308 301 266 276 277 251 242 244 250 256 260 261 259 256 253 248 244
187 196 199 203 207 212 215 224 248 234 239 245 245 243 248 269 273 274 265 264 265 269 278 285 287 284 276 278 288 284 276 271 260 214 224 245 254 256 255 255 254 251 247
194 197 203 209 216 218 220 227 241 244 244 247 249 251 252 250 249 263 270 269 268 270 271 282 287 284 273 270 271 275 276 272 276 225 210 233 246 250 251 251 251 250 248
202 205 208 215 222 224 225 230 237 245 247 249 252 252 252 254 253 257 259 265 267 264 265 274 277 280 277 272 275 269 269 267 272 257 217 223 233 241 246 248 248 247 245
207 210 214 219 224 228 232 235 237 242 247 250 251 252 254 254 253 255 254 254 262 270 267 266 272 274 271 268 267 271 271 259 262 273 271 258 235 228 236 239 241 242 241
208 210 217 223 227 229 232 236 243 244 247 251 251 251 252 254 264 261 267 266 264 263 268 268 271 273 273 276 274 276 278 281 270 266 268 266 253 245 232 227 230 234 235
213 214 220 227 230 233 197 211 244 259 255 254 256 256 255 237 235 231 244 256 264 264 269 276 276 277 279 278 277 279 281 279 278 272 271 271 270 267 262 257 228 210 220
212 219 224 230 235 232 199 208 222 249 257 258 259 259 260 259 238 245 233 227 239 242 247 260 271 275 279 276 280 277 272 277 282 289 282 274 271 268 265 260 202 203 219
215 221 226 231 236 232 203 211 218 237 252 255 255 255 257 262 258 254 259 256 252 243 233 234 250 261 265 274 273 271 276 273 266 259 257 265 268 268 268 265 216 205 221
221 225 228 233 238 239 211 211 217 245 248 251 253 253 254 256 250 235 252 261 263 263 249 233 239 251 263 269 267 268 266 266 267 265 249 254 264 268 268 265 244 205 215
227 233 234 237 242 247 223 207 210 246 255 258 255 253 245 243 251 224 245 256 260 263 269 261 236 239 247 246 233 241 255 261 265 268 262 255 261 266 269 263 260 236 223